Location: Hradec Kralove
(50.2170°N, 15.8330°E)
Time: 12:30:18
(UTC+02:00)

Explorer 7 - Pass Details

Date: 28 January 2023
Orbit: 478 x 657 km, 50.3° (Epoch: 26 March)

Event Time Altitude Azimuth Distance (km) Brightness Sun altitude
Rises 15:37:05 0° 251° (WSW) 2,798 11.9 7.8°
Reaches altitude 10° 15:39:18 10° 249° (WSW) 1,929 11.3 7.5°
Maximum altitude 15:43:44 75° 165° (SSE) 644 7.4 7.0°
Drops below altitude 10° 15:48:25 10° 80° (E) 2,034 9.2 6.4°
Sets 15:50:48 0° 79° (E) 2,964 10.0 6.1°
